Weather History for Canton, GA

Change the Weather History Date:

Saturday, December 8, 2012

  Actual Average (KGVL) Record (KGVL)
Temperature  
Mean Temperature 55 °F 45 °F  
Max Temperature 59 °F 54 °F 75 °F (1943)
Min Temperature 51 °F 37 °F 18 °F (1977)
Degree Days  
Heating Degree Days 10 20  
Month to date heating degree days 151  
Since 1 July heating degree days 686  
Growing Degree Days 5 (Base 50)    
Moisture  
Dew Point 47 °F    
Average Humidity 75    
Maximum Humidity 88    
Minimum Humidity 55    
Precipitation  
Precipitation 0.00 in 0.16 in 1.48 in (1957)
Month to date precipitation 1.37  
Year to date precipitation 50.85  
Sea Level Pressure  
Sea Level Pressure 30.04 in    
Wind  
Wind Speed 1 mph (East)    
Max Wind Speed 5 mph    
Max Gust Speed -    
Visibility 6 miles    
Events Rain    
T = Trace of Precipitation, MM = Missing Value Source: NWS Daily Summary

Daily Weather History Graph

Daily Weather History Graph

Search for Another Location

Airport:

Trip Planner

Search our weather history database for the weather conditions in past years. The results will help you decide how hot, cold, wet, or windy it might be!

Date:

Astronomy

Dec. 08, 2012 Rise Set
Actual Time 7:31 AM EST 5:27 PM EST
Civil Twilight 7:04 AM EST 5:55 PM EST
Nautical Twilight 6:32 AM EST 6:26 PM EST
Astronomical Twilight 6:02 AM EST 6:57 PM EST
Moon 2:06 AM EST (12/8) 1:47 PM EST (12/8)
Length of Visible Light 10h 51m
Length of Day
9h 55m
Waning Crescent, 28% of the Moon is Illuminated
Dec 8
Waning Crescent
Dec 13
New
Dec 20
First Quarter
Dec 28
Full
Jan 4
Last Quarter

Hourly Weather History & Observations

Time (EST) Temp. Dew Point Humidity Pressure Visibility Wind Dir Wind Speed Gust Speed Precip Events Conditions
12:15 AM 53.6 °F 42.8 °F 67% 30.04 in 10.0 mi Calm Calm - N/A   Overcast
12:35 AM 53.6 °F 42.8 °F 67% 30.04 in 10.0 mi East 3.5 mph - N/A   Overcast
12:55 AM 53.6 °F 42.8 °F 67% 30.04 in 10.0 mi East 3.5 mph - N/A   Overcast
1:15 AM 53.6 °F 42.8 °F 67% 30.04 in 10.0 mi Calm Calm - N/A   Overcast
1:35 AM 53.6 °F 42.8 °F 67% 30.03 in 10.0 mi Calm Calm - N/A   Mostly Cloudy
1:55 AM 53.6 °F 42.8 °F 67% 30.03 in 10.0 mi Calm Calm - N/A   Overcast
2:15 AM 53.6 °F 42.8 °F 67% 30.03 in 10.0 mi Calm Calm - N/A   Overcast
2:35 AM 53.6 °F 42.8 °F 67% 30.03 in 10.0 mi Calm Calm - N/A   Mostly Cloudy
2:55 AM 53.6 °F 42.8 °F 67% 30.02 in 10.0 mi East 3.5 mph - N/A   Scattered Clouds
3:15 AM 51.8 °F 42.8 °F 71% 30.02 in 10.0 mi Calm Calm - N/A   Scattered Clouds
3:35 AM 51.8 °F 42.8 °F 71% 30.02 in 10.0 mi Calm Calm - N/A   Clear
3:55 AM 51.8 °F 42.8 °F 71% 30.02 in 10.0 mi Calm Calm - N/A   Scattered Clouds
4:15 AM 53.6 °F 42.8 °F 67% 30.02 in 10.0 mi Calm Calm - N/A   Mostly Cloudy
4:35 AM 53.6 °F 42.8 °F 67% 30.02 in 10.0 mi ENE 3.5 mph - N/A   Overcast
4:55 AM 53.6 °F 42.8 °F 67% 30.02 in 10.0 mi Calm Calm - N/A   Overcast
5:15 AM 51.8 °F 42.8 °F 71% 30.02 in 10.0 mi ENE 3.5 mph - N/A   Mostly Cloudy
5:35 AM 51.8 °F 42.8 °F 71% 30.02 in 10.0 mi Calm Calm - N/A   Mostly Cloudy
5:55 AM 51.8 °F 42.8 °F 71% 30.02 in 10.0 mi Calm Calm - N/A   Mostly Cloudy
6:15 AM 53.6 °F 42.8 °F 67% 30.03 in 10.0 mi Calm Calm - N/A   Overcast
6:55 AM 51.8 °F 42.8 °F 71% 30.04 in 10.0 mi Calm Calm - N/A   Overcast
7:15 AM 51.8 °F 42.8 °F 71% 30.05 in 10.0 mi Calm Calm - N/A   Overcast
7:35 AM 53.6 °F 42.8 °F 67% 30.05 in 10.0 mi Calm Calm - N/A   Overcast
7:55 AM 53.6 °F 42.8 °F 67% 30.05 in 10.0 mi Calm Calm - N/A   Overcast
8:15 AM 53.6 °F 42.8 °F 67% 30.05 in 7.0 mi Calm Calm - N/A   Overcast
8:35 AM 53.6 °F 42.8 °F 67% 30.05 in 7.0 mi Calm Calm - N/A   Overcast
8:55 AM 53.6 °F 42.8 °F 67% 30.05 in 7.0 mi East 3.5 mph - N/A   Overcast
9:15 AM 55.4 °F 42.8 °F 63% 30.06 in 10.0 mi Calm Calm - N/A   Mostly Cloudy
9:35 AM 55.4 °F 42.8 °F 63% 30.06 in 10.0 mi Calm Calm - N/A   Overcast
9:55 AM 55.4 °F 42.8 °F 63% 30.06 in 10.0 mi ENE 3.5 mph - N/A   Overcast
10:15 AM 57.2 °F 42.8 °F 59% 30.06 in 10.0 mi Calm Calm - N/A   Overcast
10:55 AM 59.0 °F 42.8 °F 55% 30.06 in 7.0 mi Calm Calm - N/A   Overcast
11:15 AM 59.0 °F 44.6 °F 59% 30.06 in 5.0 mi Calm Calm - N/A   Haze
11:55 AM 57.2 °F 46.4 °F 67% 30.05 in 2.5 mi Calm Calm - N/A   Light Drizzle
12:15 PM 55.4 °F 48.2 °F 77% 30.05 in 2.5 mi Calm Calm - N/A   Drizzle
12:35 PM 55.4 °F 50.0 °F 82% 30.04 in 1.5 mi Calm Calm - N/A   Heavy Drizzle
12:55 PM 55.4 °F 50.0 °F 82% 30.03 in 1.2 mi Calm Calm - N/A Rain Heavy Rain
1:15 PM 55.4 °F 50.0 °F 82% 30.03 in 1.8 mi Calm Calm - N/A   Heavy Drizzle
1:35 PM 55.4 °F 51.8 °F 88% 30.02 in 2.5 mi Calm Calm - N/A   Light Drizzle
1:55 PM 55.4 °F 51.8 °F 88% 30.02 in 2.5 mi Calm Calm - N/A Rain Rain
2:15 PM 55.4 °F 51.8 °F 88% 30.02 in 1.2 mi Calm Calm - N/A Rain Heavy Rain
2:55 PM 57.2 °F 51.8 °F 82% 30.02 in 3.0 mi Calm Calm - N/A Rain Light Rain
3:15 PM 57.2 °F 51.8 °F 82% 30.02 in 2.5 mi East 4.6 mph - N/A Rain Rain
3:35 PM 57.2 °F 51.8 °F 82% 30.02 in 1.5 mi East 4.6 mph - N/A   Heavy Drizzle
3:55 PM 57.2 °F 51.8 °F 82% 30.02 in 2.0 mi East 3.5 mph - N/A Rain Light Rain
4:15 PM 57.2 °F 53.6 °F 88% 30.02 in 3.0 mi East 3.5 mph - N/A   Overcast
4:35 PM 57.2 °F 53.6 °F 88% 30.01 in 3.0 mi Calm Calm - N/A   Overcast
4:55 PM 59.0 °F 53.6 °F 82% 30.01 in 2.5 mi Calm Calm - N/A   Haze
5:15 PM 57.2 °F 53.6 °F 88% 30.01 in 2.5 mi East 3.5 mph - N/A   Overcast
5:35 PM 57.2 °F 53.6 °F 88% 30.01 in 0.8 mi Calm Calm - N/A   Overcast
5:55 PM 57.2 °F 51.8 °F 82% 30.01 in 0.2 mi Calm Calm - N/A   Haze
6:15 PM 57.2 °F 51.8 °F 82% 30.02 in 0.5 mi Calm Calm - N/A   Haze
6:35 PM 57.2 °F 51.8 °F 82% 30.03 in 0.5 mi ENE 3.5 mph - N/A   Haze
6:55 PM 57.2 °F 51.8 °F 82% 30.03 in 0.5 mi East 3.5 mph - N/A   Haze
7:15 PM 57.2 °F 53.6 °F 88% 30.04 in 0.8 mi ENE 4.6 mph - N/A   Overcast
7:55 PM 57.2 °F 51.8 °F 82% 30.04 in 2.0 mi Calm Calm - N/A   Haze
8:15 PM 57.2 °F 51.8 °F 82% 30.05 in 2.0 mi Calm Calm - N/A   Light Drizzle
8:35 PM 57.2 °F 51.8 °F 82% 30.05 in 2.0 mi East 4.6 mph - N/A   Drizzle
8:55 PM 57.2 °F 51.8 °F 82% 30.05 in 2.0 mi Calm Calm - N/A Rain Light Rain
9:15 PM 57.2 °F 51.8 °F 82% 30.06 in 2.5 mi ENE 3.5 mph - N/A   Haze
9:35 PM 57.2 °F 51.8 °F 82% 30.05 in 2.5 mi ESE 4.6 mph - N/A   Haze
9:55 PM 55.4 °F 51.8 °F 88% 30.05 in 2.0 mi Calm Calm - N/A   Overcast
10:15 PM 57.2 °F 51.8 °F 82% 30.05 in 2.0 mi Calm Calm - N/A   Haze
10:35 PM 57.2 °F 53.6 °F 88% 30.05 in 2.0 mi Calm Calm - N/A   Overcast
10:55 PM 57.2 °F 51.8 °F 82% 30.06 in 2.5 mi Calm Calm - N/A   Haze
11:15 PM 55.4 °F 51.8 °F 88% 30.06 in 2.0 mi Calm Calm - N/A   Light Drizzle
11:35 PM 57.2 °F 53.6 °F 88% 30.06 in 3.0 mi Calm Calm - N/A   Overcast